Home > Weather > Mainz > Past weeks

Flag for Germany Past Weather in Mainz, Rhineland-Palatinate, Germany — Yesterday and Last 2 Weeks

Now
64 °F

Mostly cloudy.


Feels Like: 64 °F
Forecast: 54 / 68 °F
Wind: 9 mph from Southwest

Location: Wiesbaden Airport

Current Time: May 31, 2016 at 2:08:16 PM

Latest Report: May 31, 2016 at 1:03 PM


Visibility: N/A

Pressure: 29.85 "Hg

Humidity: 68%

Dew Point: 54 °F

Location of MainzLocation

Past Weather in Mainz — Graph

°F

Mainz Temperature Yesterday

Maximum temperature yesterday: 65 °F (at 3:58 PM)
Minimum temperature yesterday: 59 °F (at 11:58 PM)
Average temperature yesterday: 62 °F

High & Low Weather Summary for the Past Weeks

 TemperatureHumidityPressure
High77 °F (May 22, 2:58 PM)100% (May 26, 6:04 AM)30.14 "Hg (May 26, 6:04 AM)
Low44 °F (May 20, 5:58 AM)32% (May 22, 3:58 PM)29.54 "Hg (May 30, 2:58 AM)
Average59 °F73%29.91 "Hg
* Reported May 16 11:58 AM — May 31 11:58 AM, Mainz, Weather by CustomWeather, © 2016

Note: Actual official high and low records may vary slightly from our data, if they occured in-between our weather recording intervals... More about our weather records

Advertising

Mainz Weather History for the Previous 24 Hours

Scroll right to see more
 ConditionsComfort  
Time TempWeatherWind HumidityBarometerVisibility
11:58 AM
Tue, May 31
65 °FMore clouds than sun.12 mph68%29.84 "HgN/A
10:58 AM64 °FMostly cloudy.12 mph71%29.82 "HgN/A
9:58 AM63 °FPartly sunny.12 mph77%29.81 "HgN/A
8:58 AM60 °FMostly cloudy.8 mph80%29.80 "HgN/A
7:58 AM59 °FOvercast.9 mph82%29.79 "HgN/A
6:58 AM57 °FPartly sunny.6 mph88%29.78 "HgN/A
5:58 AM57 °FPassing clouds.7 mph88%29.76 "HgN/A
4:58 AM57 °FPassing clouds.6 mph88%29.75 "HgN/A
3:58 AM58 °FPassing clouds.6 mph89%29.75 "HgN/A
2:58 AM59 °FOvercast.7 mph88%29.74 "HgN/A
1:58 AM58 °FOvercast.3 mph86%29.74 "HgN/A
12:58 AM59 °FOvercast.8 mph82%29.73 "HgN/A
11:58 PM
Mon, May 30
59 °FMostly cloudy.9 mph82%29.73 "HgN/A
10:58 PM61 °FOvercast.7 mph83%29.72 "HgN/A
10:01 PM61 °FPartly sunny.9 mph83%29.71 "HgN/A
8:58 PM61 °FPartly sunny.7 mph83%29.69 "HgN/A
8:02 PM63 °FOvercast.9 mph88%29.68 "HgN/A
7:58 PM62 °FMostly cloudy.8 mph90%29.68 "HgN/A
6:58 PM62 °FScattered clouds.10 mph91%29.65 "HgN/A
6:04 PM63 °FLight rain. Broken clouds.12 mph88%29.64 "HgN/A
4:58 PM65 °FPartly sunny.13 mph84%29.63 "HgN/A
3:58 PM65 °FScattered clouds.13 mph85%29.63 "HgN/A
2:59 PM61 °FPartly sunny.8 mph94%29.62 "HgN/A
Weather by CustomWeather, © 2016

See weather overviewHow to use our weather pages